Find OneWeb SL0540

NORAD ID: 54645 Int'l Des: 2022-166 Owner: ONEWEBN Country: UK Constellation: oneweb operational
LEOCIRCULARPOLARONEWEB_TYPE

Live Position

Loading 3D Globe...

About OneWeb SL0540

Description loading...

Upcoming Passes

Passes for default location (London). Set your location on the main map for personalized predictions.

Altitude History

Loading altitude history...

Two-Line Element Set

1 54645U 22166D 26121.29041646 .00000002 00000-0 -26088-4 0 9996
2 54645 87.9223 253.3375 0001982 102.4012 257.7344 13.21827570165331
Epoch: May 1, 2026 • Age: 5 hours

Current Status

Altitude 1205.7 km
Velocity 7.25 km/s
Sub-Earth Point -70.95°S, 153.06°W
Launch Date Dec 8, 2022
Age 3.3 years
Type internet

Technical Details

Classification Payload
Mass 148.00 kg
Dry Mass 140.00 kg
Total Mass 148.00 kg
Length 1.30 m
Diameter 1.00 m
Span 5.00 m
Shape Trapezoid+2 pan
Manufacturer ONEWUS
Bus Type ARROW
Phase Status In Orbit
Owner/State ONEWEBN/UK

Most Searched